Location: Olsztyn
(53.7767°N, 20.4765°E)
Time: 15:28:14
(UTC+02:00)

A-11 Canister half - Pass Details

Date: 29 January 2022
Orbit: 1513 x 1686 km, 47.2° (Epoch: 25 May)

Event Time Altitude Azimuth Distance (km) Brightness Sun altitude
Rises 16:45:22 0° 242° (WSW) 4,769 14.4 -5.0°
Reaches altitude 10° 16:48:33 10° 238° (WSW) 3,762 12.8 -5.4°
Maximum altitude 16:57:38 53° 165° (SSE) 1,824 9.5 -6.7°
Drops below altitude 10° 17:06:30 10° 92° (E) 3,679 10.4 -7.9°
Enters shadow 17:07:30 - 91° (E) 3,988 10.6 -8.0°
Sets 17:09:36 0° 88° (E) 4,658 - -8.3°
